www.pogodaiklimat.ru

Погода и климат >> Архив погоды >> Мексика >> Халапа


ПОГОДА в Халапе

  • Прогноз погоды в Халапе
  • Монитор погоды в Халапе

АРХИВ ПОГОДЫ в Халапе

Время (UTC), дата Ветер
(напр.,м/с)
 
Видим.   Явления Облачность Т
(С)
Тd
(С)
f
(%)
Тe
(С)
Тes
(С)
Комфортность P
(гПа)
Po
(гПа)
Тmin
(С)
Tmax
(С)
R
(мм)
R24
(мм)
S
(см)
18 15.03 Ю 1 12 км 9/9 720 м
[Sc]
+22.6 +17.5 73 +28 +30 душно 1015.3 868.7 +17.5 +23.0
21 15.03 ЮВ 1 12 км 10/10 720 м
[Sc diur, vesp]
+22.6 +17.8 74 +28 +28 душно 1013.0 867.0
00 16.03 СЗ 1 14 км осадки на расстоянии 10/10 720 м
[Sc]
+19.2 +14.1 72 +22 +22 комфорт 1013.2 867.4 +17.5 +23.6
03 16.03 ЮЗ 1 8000 м 10/10 600 м
[Sc]
+17.4 +15.8 90 +18 +18 1014.5 868.4
06 16.03 Ю 1 8000 м 10/10 600 м
[]
+16.8 +15.3 91 +18 +18 1016.3 869.5 +23.6
09 16.03 Ю 1 8000 м 10/10 600 м
[Sc]
+16.0 +14.6 91 +17 +17 1016.8 869.1
12 16.03 Ю 1 8000 м 9/9 600 м
[Sc]
+14.4 +13.2 92 +15 +15 1016.1 868.0 +13.8 +23.6
15 16.03 ЮЗ 1 12 км слаб. морось 10/10 600 м
[Sc]
+14.2 +13.1 93 +14 +14 1020.7 871.4 0.1
18 16.03 ЮЗ 1 12 км слаб. морось 10/10 600 м
[Sc]
+15.0 +13.9 93 +15 +15 1020.5 871.0 +13.8 +16.6 0.1
21 16.03 З 1 600 м слаб. морось {туман} ?/? +14.0 +13.1 94 +14 +14 1018.3 869.0 0.2
00 17.03 ЮЗ 1 900 м слаб. морось {туман} ?/? +14.0 +13.1 94 +14 +14 1018.3 868.9 +13.8 +16.6 0.9
03 17.03 З 1 500 м туман ?/? +13.0 +12.0 94 +13 +13 1019.6 869.9 0.4
06 17.03 Ю 1 500 м туман ?/? +12.4 +11.4 94 +12 +12 1020.7 870.6 +16.6 0.7
09 17.03 Ю 1 8000 м 9/9 600 м
[Sc]
+12.0 +11.0 94 +12 +12 1019.8 869.5
12 17.03 Ю 1 500 м туман ?/? +12.0 +10.7 92 +12 +12 1018.8 868.4 +11.8 +16.6 0.2
15 17.03 С 1 100 м слаб. морось ?/? +13.1 +12.8 98 +13 +13 1020.6 869.9 0.1
18 17.03 Ю 1 4000 м слаб. морось 10/10 450 м
[Sc]
+14.3 +12.9 91 +15 +15 1020.4 869.8 +11.8 +14.6 0.0
21 17.03 В 1
{1}
4000 м в посл. час туман 10/10 450 м
[Sc]
+15.2 +13.4 89 +16 +16 1017.7 867.9
00 18.03 В 1
{1}
100 м слаб. морось {туман} ?/? +13.8 +13.5 98 +14 +14 1017.3 867.8 +11.8 +15.6 0.1
03 18.03 штиль 0 6000 м туман на расстоянии 10/10 420 м
[Sc]
+13.4 +12.8 96 +13 +13 1019.1 869.4 0.9
06 18.03 штиль 0 6000 м туман на расстоянии 10/10 420 м
[]
+13.2 +12.9 98 +13 +13 1019.4 869.6 +15.6 0.9
09 18.03 З 1 8000 м {туман} 10/10 420 м
[]
+13.2 +12.9 98 +13 +13 1017.3 867.6
12 18.03 штиль 0 10 км 10/10 420 м
[Sc]
+13.2 +12.9 98 +13 +13 1016.7 867.0 +13.0 +15.6
18 18.03 В 1 14 км 10/10 660 м
[Sc]
+17.4 +14.1 81 +18 +18 1018.6 869.0 +12.8 +17.8
21 18.03 В 1 100 м туман ?/? +14.0 +13.7 98 +14 +14 1016.0 867.0 0.6
00 19.03 В 1 5000 м слаб. морось {туман} 10/10 450 м
[St]
+13.8 +13.3 97 +14 +14 1015.6 866.7 +12.8 +17.8 3
03 19.03 штиль 0 6000 м туман на расстоянии 10/10 420 м
[Sc]
+13.4 +12.7 96 +13 +13 1018.2 868.9
06 19.03 З 1 10 км в посл. час морось {туман} 10/10 420 м
[]
+12.6 +12.3 98 +12 +12 1019.2 869.3 +17.8 0.5
09 19.03 З 1 10 км 10/10 420 м
[]
+12.8 +12.5 98 +13 +13 1017.8 867.9
12 19.03 Ю 1 2000 м слаб. морось {туман} туман 10/10 420 м
[Sc]
+12.6 +12.3 98 +12 +12 1017.9 867.6 +12.4 +17.8 0.2
15 19.03 ЮЗ 1 12 км {морось} 10/10 800 м
[Sc]
+14.4 +13.5 94 +15 +15 1020.5 870.0 0.0
18 19.03 ЮВ 1 14 км слаб. морось 10/10 800 м
[Sc]
+16.4 +14.3 87 +17 +17 1019.7 869.7 +12.4 +16.7 0.2
21 19.03 Ю 1 6000 м слаб. морось 10/10 450 м
[Sc]
+14.6 +14.0 96 +15 +15 1016.9 867.6 1
00 20.03 ЮВ 1 900 м слаб. морось {туман} ?/? +12.8 +12.2 96 +13 +13 1016.7 867.5 +12.4 +16.7 3
03 20.03 ЮЗ 1 500 м туман ?/? +12.8 +12.2 96 +13 +13 1018.7 869.2 1
06 20.03 ЮЗ 1 1000 м слаб. морось {туман} 10/10 120 м
[St]
+12.8 +12.2 96 +13 +13 1019.4 869.5 +12.4 +16.7 0.6
09 20.03 ЮЗ 1 500 м туман ?/? +12.6 +12.3 98 +12 +12 1017.8 867.8
12 20.03 ЮЗ 1 3000 м дымка {туман} 10/10 150 м
[St]
+12.8 +14 +14 1018.1 867.9 +16.7 0.0
15 20.03 З 1 12 км {туман} 10/10 660 м
[Sc diur, vesp]
+14.0 +13.1 94 +14 +14 1020.2 869.7
18 20.03 Ю 1
{1}
14 км 10/10 720 м
[Sc diur, vesp]
+16.8 +14.1 84 +18 +18 1019.4 869.5 +12.4 +18.5
21 20.03 Ю 1
{1}
4000 м в посл. час туман 10/10 420 м
[Sc]
+14.8 +12.9 88 +15 +15 1017.0 867.9
00 21.03 Ю 1 4000 м в посл. час туман 10/10 420 м
[Sc]
+14.8 +14.2 96 +15 +15 1016.6 867.8 +12.4 +18.8
03 21.03 Ю 1 100 м слаб. морось {туман} ?/? +14.2 +13.9 98 +14 +14 1018.7 869.8 1
06 21.03 Ю 1 100 м слаб. морось {туман} ?/? +14.2 +13.9 98 +14 +14 1016.7 870.3 +12.4 +18.8 1
12 21.03 Ю 1 1000 м туман 10/10 120 м
[St]
+14.0 +13.7 98 +14 +14 1018.7 869.1 +14.0 +18.8 0.0
15 21.03 ЮЗ 1 200 м туман ?/? +14.0 +13.7 98 +14 +14 1021.1 871.1
18 21.03 Ю 1 10 км 10/10 540 м
[St]
+17.4 +14.9 85 +18 +18 1021.0 871.3 +13.7 +17.8
21 21.03 В 1 5000 м слаб. морось 10/10 480 м
[St]
+16.4 +14.6 89 +17 +17 1018.4 869.4 0.0
00 22.03 Ю 1 100 м слаб. морось {туман} ?/? +14.9 +14.4 97 +15 +15 1017.4 868.7 +13.7 +17.8 0.8
03 22.03 Ю 1 500 м туман ?/? +14.0 +13.1 94 +14 +14 1018.2 869.3 3
06 22.03 Ю 1 500 м туман ?/? +13.2 +12.3 94 +13 +13 1019.9 870.5 +13.0 +17.8 1
09 22.03 Ю 1 500 м туман ?/? +13.0 +12.0 94 +13 +13 1020.1 870.2
12 22.03 З 1 500 м туман ?/? +13.0 +12.0 94 +13 +13 1019.5 869.4 +12.6 +17.8 0.4
15 22.03 Ю 1 100 м слаб. морось {туман} ?/? +14.0 +13.4 96 +14 +14 1021.4 871.0 0.7

 

Местоположение метеостанции Халапа (Мексика): широта 19.55 долгота -96.91 высота над уровнем моря 1389 м.

В архиве по умолчанию представлена погода в Халапе за последнюю неделю. Архивные данные за месяц целиком и за предыдущие месяцы, начиная с января 2011 года, Вы можете получить, выбрав интересующий диапазон дат из раскрывающегося списка и нажав кнопку "Ввод!".


*Определитесь, кто Вы:
робот инопланетянин человек

Внимание! Время в таблицах - всемирное. Для получения местного времени необходимо прибавить поправку, которая равна -6 ч.

Смотрите также архив погоды в соседних городах и на ближайших метеорологических станциях:

Погода в Кордове (Мексика) (72 км)
Погода в Оризабе (Мексика) (80 км)
Погода в Веракрусе (Мексика) (95 км)
Погода в Тлашкала аэропорту (Мексика) (142 км)
Погода в Пуэбле (Мексика) (143 км)
Погода в Тлашкале (Мексика) (143 км)
Погода в Тулансинго (Мексика) (164 км)
Погода в Туспане (Мексика) (164 км)
Погода в Пачуке (Мексика) (203 км)
Погода в Уахуапан-де-Леоне (Мексика) (215 км)

Пояснения к столбцам:

Ветер - указаны скорость ветра в м/с - средняя за 10 мин, порывы в срок и между сроками (в фигурных скобках) и направление, откуда дует ветер: С - северный, СВ - северо-восточный, В - восточный, ЮВ - юго-восточный, Ю - южный, ЮЗ - юго-западный, З - западный, СЗ - северо-западный.
Видимость - горизонтальная дальность видимости в метрах или километрах. При видимости от 1 до 10 км при отсутствии осадков обычно наблюдается дымка, при ухудшении видимости до 1 км и менее - туман. В сухую погоду видимость может ухудшаться дымом, пылью или мглою.
Явления - указаны атмосферные явления, наблюдавшиеся в срок или в последний час перед сроком; фигурными скобками обозначены явления, наблюдавшиеся между сроками (за 1-3 часа до срока); квадратными скобками обозначены град или гололедные отложения с указанием их диаметра в мм.
Облачность - указаны через наклонную черту общая и нижняя облачность в баллах и высота нижней границы облаков в метрах; квадратными скобками обозначены формы облаков: Ci - перистые, Cs - перисто-слоистые, Cc - перисто-кучевые, Ac - высококучевые, As - высокослоистые, Sc - слоисто-кучевые, Ns - слоисто-дождевые, Cu - кучевые, Cb - кучево-дождевые. Подробнее классификацию облаков см. в Атласе облаков (PDF).
T - Температура воздуха - температура, измеренная на высоте 2 м над землей.
Td - Температура точки росы - температура, при понижении до которой содержащийся в воздухе водяной пар достигнет насыщения.
f - Относительная влажность воздуха - влажноcть воздуха, измеренная на высоте 2 м над землей.
Te - Эффективная температура - температура, которую ощущает одетый по сезону человек в тени. Характеристика душности погоды. При расчете учитывается влияние влажности воздуха и скорости ветра на теплоощущения человека.
Tes - Эффективная температура на солнце - температура, которую ощущает человек, с поправкой на солнечный нагрев. Характеристика знойности погоды. Зависит от высоты солнца над горизонтом, облачности и скорости ветра. Ночью, в пасмурную погоду, а также при ветре 12 м/с и более поправка равна нулю.
P - Атмосферное давление - приведенное к уровню моря атмосферное давление.
Po - Атмосферное давление - измеренное на уровне метеостанции атмосферное давление.
Tmin - Минимальная температура - минимум температуры воздуха на высоте 2 м над землей.
Tmax - Максимальная температура - максимум температуры воздуха на высоте 2 м над землей.
R - Количество осадков - Количество выпавших осадков за период времени, мм. При наведении курсора мыши на число - период времени, за который выпало указанное количество осадков.
R24 - Количество осадков - Количество выпавших осадков за 24 часа, мм.
S - Снежный покров - Высота снежного покрова, см. При наведении курсора мыши на число - состояние снежного покрова и степень покрытия местности в баллах.